time_stamp(utc),avg(mph),gust(mph),direction(deg),12m_air_temp(f),sonic_u(cm/s),sonic_v(cm/s),sonic_w(cm/s),pressure,2m_air_temp(f),pyranometer(W/m^2)
"2020-05-14 00:03:21+00",13.2,16.2,,54.2,-357,-481,14,1024.3,53.8,0
"2020-05-14 00:08:21+00",11.6,13.6,,54,-352,-397,-5,1024.43,53.6,0
"2020-05-14 00:13:21+00",14.4,17.4,,53.9,-471,-438,14,1024.39,53.4,0
"2020-05-14 00:18:21+00",13.1,16.1,,53.7,-448,-375,23,1024.51,53.3,0
"2020-05-14 00:23:21+00",12.5,14.5,,53.7,-403,-369,5,1024.43,53.2,0
"2020-05-14 00:28:21+00",13.2,15.2,,53.8,-425,-381,15,1024.48,53.2,0
"2020-05-14 00:33:21+00",11.9,14.9,,54,-361,-378,6,1024.63,53.2,0
"2020-05-14 00:38:21+00",9.8,10.8,,53.7,-226,-386,9,1024.73,53,0
"2020-05-14 00:43:21+00",9.1,11.1,,53.1,-165,-360,-8,1024.71,52.6,0
"2020-05-14 00:48:21+00",10.1,11.1,,53.2,-197,-406,-3,1024.8,52.3,0
"2020-05-14 00:53:21+00",9.2,10.2,,53.2,-258,-335,-2,1024.88,52.2,0
"2020-05-14 00:58:21+00",9.7,10.7,,53,-253,-368,0,1025.01,52.1,0
"2020-05-14 01:03:21+00",10.2,11.2,,53,-254,-390,0,1024.97,52.1,0
"2020-05-14 01:08:21+00",10.2,11.2,,53,-253,-394,-4,1025.06,52,0
"2020-05-14 01:13:21+00",11.9,13.9,,53.5,-327,-448,2,1025.08,52.1,0
"2020-05-14 01:18:21+00",10.4,14.4,,53.5,-249,-400,10,1025.19,52.4,0
"2020-05-14 01:23:21+00",11.3,13.3,,53.4,-286,-429,-1,1025.29,52.4,0
"2020-05-14 01:28:21+00",11.3,12.3,,53.4,-304,-419,3,1025.34,52.4,0
"2020-05-14 01:33:21+00",10.6,12.6,,53.4,-279,-397,5,1025.46,52.3,0
"2020-05-14 01:38:21+00",9.9,10.9,,53.3,-236,-379,-4,1025.52,52.3,0
"2020-05-14 01:43:21+00",9.8,10.8,,53.3,-221,-388,-1,1025.49,52.2,0
"2020-05-14 01:48:21+00",9.9,10.9,,53.1,-247,-387,4,1025.57,52.1,0
"2020-05-14 01:53:21+00",8.8,9.8,,53,-218,-338,8,1025.63,52,0
"2020-05-14 01:58:21+00",9.0,10.0,,52.8,-198,-357,0,1025.58,51.9,0
"2020-05-14 02:03:21+00",8.2,10.2,,52.7,-201,-318,6,1025.57,51.8,0
"2020-05-14 02:08:21+00",9.3,10.3,,52.7,-222,-364,3,1025.64,51.7,0
"2020-05-14 02:13:21+00",8.5,9.5,,52.8,-191,-335,-1,1025.74,51.5,0
"2020-05-14 02:18:21+00",8.1,9.1,,52.7,-186,-319,0,1025.78,51.4,0
"2020-05-14 02:23:21+00",8.3,9.3,,52.7,-196,-318,1,1025.79,51.3,0
"2020-05-14 02:28:21+00",8.1,10.1,,52.7,-145,-326,-5,1025.85,51.2,0
"2020-05-14 02:33:21+00",5.5,6.5,,52.4,-54,-223,-2,1025.85,51.1,0
"2020-05-14 02:38:21+00",7.1,8.1,,52,-113,-289,-5,1025.94,50.9,0
"2020-05-14 02:43:21+00",7.4,8.4,,51.9,-121,-294,-6,1025.86,50.5,0
"2020-05-14 02:48:21+00",7.4,8.4,,51.8,-108,-303,-5,1025.87,50.1,0
"2020-05-14 02:53:21+00",7.4,8.4,,52,-95,-301,-3,1025.86,50,0
"2020-05-14 02:58:21+00",7.3,8.3,,52.1,-122,-294,-2,1025.89,50.1,0
"2020-05-14 03:03:21+00",7.7,8.7,,52.2,-140,-302,-5,1025.93,50.2,0
"2020-05-14 03:08:21+00",7.7,8.7,,52.2,-164,-307,-5,1025.82,50.2,0
"2020-05-14 03:13:21+00",7.7,8.7,,52.2,-174,-291,0,1025.91,50.1,0
"2020-05-14 03:18:21+00",7.1,8.1,,52.2,-124,-282,-3,1025.98,50,0
"2020-05-14 03:23:21+00",7.8,8.8,,52.2,-122,-317,-3,1025.89,50.1,0
"2020-05-14 03:28:21+00",6.0,7.0,,52,-53,-255,-3,1025.9,50,0
"2020-05-14 03:33:21+00",7.9,8.9,,52,-186,-303,-7,1025.88,50,0
"2020-05-14 03:38:21+00",7.5,8.5,,52,-194,-282,-1,1025.9,49.8,0
"2020-05-14 03:43:21+00",8.3,9.3,,52,-232,-310,1,1025.89,49.6,0
"2020-05-14 03:48:21+00",8.3,9.3,,52.2,-230,-317,-1,1025.98,49.7,0
"2020-05-14 03:53:21+00",7.6,8.6,,52.2,-222,-295,-1,1026.01,49.9,0
"2020-05-14 03:58:21+00",8.6,9.6,,52.4,-248,-289,2,1026.01,49.9,0
"2020-05-14 04:03:21+00",8.5,8.5,,52.6,-242,-277,5,1026.02,49.9,0
"2020-05-14 04:08:21+00",6.9,6.9,,52.7,-205,-275,1,1026,50,0
"2020-05-14 04:13:21+00",7.2,7.2,,52.7,-225,-278,4,1025.95,49.9,0
"2020-05-14 04:18:21+00",7.8,8.8,,52.6,-195,-286,2,1026.03,49.9,0
"2020-05-14 04:23:21+00",6.7,7.7,,52.4,-189,-258,1,1026.02,49.8,0
"2020-05-14 04:28:21+00",7.2,8.2,,52.3,-199,-262,-5,1026,49.7,0
"2020-05-14 04:33:21+00",7.7,8.7,,52.4,-222,-268,-2,1026,49.6,0
"2020-05-14 04:38:21+00",7.1,8.1,,52.4,-210,-253,2,1025.99,49.7,0
"2020-05-14 04:43:21+00",5.6,6.6,,52.4,-161,-178,4,1025.92,49.7,0
"2020-05-14 04:48:21+00",3.5,4.5,,52.2,-106,-95,3,1026.03,49.6,0
"2020-05-14 04:53:21+00",2.3,3.3,,51.9,-78,-33,1,1025.95,49.2,0
"2020-05-14 04:58:21+00",3.3,4.3,,51.9,-135,-46,-9,1025.89,49,0
"2020-05-14 05:03:21+00",3.9,3.9,,52.1,-153,-68,1,1025.81,49.2,0
"2020-05-14 05:08:21+00",4.5,5.5,,52.3,-171,-75,5,1025.83,49.6,0
"2020-05-14 05:13:21+00",4.6,5.6,,52.5,-183,-94,6,1025.79,49.7,0
"2020-05-14 05:18:21+00",4.3,5.3,,52.7,-172,-90,9,1025.83,49.6,0
"2020-05-14 05:23:21+00",3.5,3.5,,52.7,-139,-72,4,1025.73,49.5,0
"2020-05-14 05:28:21+00",2.9,2.9,,52.7,-114,-57,-3,1025.69,49.3,0
"2020-05-14 05:33:21+00",3.6,3.6,,52.6,-150,-23,-7,1025.76,49.4,0
"2020-05-14 05:38:21+00",4.3,4.3,,52.5,-170,-107,6,1025.75,49.1,0
"2020-05-14 05:43:21+00",8.0,9.0,,52.4,-233,-281,11,1025.91,49.2,0
"2020-05-14 05:48:21+00",8.9,9.9,,52.4,-353,-229,0,1025.86,49.1,0
"2020-05-14 05:53:21+00",7.4,8.4,,52.2,-317,-181,13,1025.92,49.1,0
"2020-05-14 05:58:21+00",5.5,6.5,,52.2,-213,-77,8,1025.81,49.2,0
"2020-05-14 06:03:21+00",5.3,5.3,,52,-212,-101,-4,1025.79,49.1,0
"2020-05-14 06:08:21+00",4.1,5.1,,51.8,-55,158,6,1025.85,48.9,0
"2020-05-14 06:13:21+00",9.8,10.8,,50.2,98,394,1,1025.87,47.9,0
"2020-05-14 06:18:21+00",6.7,7.7,,50.8,-84,276,8,1025.86,47.9,0
"2020-05-14 06:23:21+00",7.6,9.6,,50.3,58,326,-5,1025.89,47.7,0
"2020-05-14 06:28:21+00",7.1,9.1,,50.1,46,297,1,1025.89,47.3,0
"2020-05-14 06:33:21+00",7.7,8.7,,48.8,34,335,0,1026.01,46.8,0
"2020-05-14 06:38:21+00",6.7,6.7,,48.4,24,286,1,1026.01,46.2,0
"2020-05-14 06:43:21+00",6.5,7.5,,48.2,0,280,1,1026.07,45.8,0
"2020-05-14 06:48:21+00",6.8,6.8,,48.1,-11,289,7,1026.12,45.5,0
"2020-05-14 06:53:21+00",5.8,5.8,,47.9,-18,249,4,1026.17,45.3,0
"2020-05-14 06:58:21+00",5.4,6.4,,47.9,-13,226,6,1026.19,45,0
"2020-05-14 07:03:21+00",5.7,5.7,,47.8,33,235,0,1026.25,44.8,0
"2020-05-14 07:08:21+00",4.6,4.6,,47.8,79,174,0,1026.41,44.9,0
"2020-05-14 07:13:21+00",3.6,4.6,,47.7,119,90,4,1026.39,44.9,0
"2020-05-14 07:18:21+00",3.8,3.8,,47.8,128,95,0,1026.36,44.9,0
"2020-05-14 07:23:21+00",3.9,3.9,,48.2,57,149,-1,1026.32,45.1,0
"2020-05-14 07:28:21+00",4.5,5.5,,48.2,37,174,-2,1026.39,45.2,0
"2020-05-14 07:33:21+00",4.5,5.5,,48.3,72,175,-6,1026.47,45.4,0
"2020-05-14 07:38:21+00",5.0,6.0,,48.4,109,162,-2,1026.49,45.5,0
"2020-05-14 07:43:21+00",5.1,6.1,,48.6,97,193,-3,1026.42,45.4,0
"2020-05-14 07:48:21+00",4.4,4.4,,48.8,90,157,0,1026.41,45.5,0
"2020-05-14 07:53:21+00",4.7,4.7,,48.7,120,141,-4,1026.38,45.4,0
"2020-05-14 07:58:21+00",4.8,4.8,,48.9,108,154,-7,1026.36,45.3,0
"2020-05-14 08:03:21+00",4.0,4.0,,49.1,63,152,1,1026.45,45.4,0
"2020-05-14 08:08:21+00",4.6,4.6,,49.2,96,152,-3,1026.34,45.5,0
"2020-05-14 08:13:21+00",3.9,3.9,,49.4,102,114,-5,1026.43,45.5,0
"2020-05-14 08:18:21+00",4.5,4.5,,49.5,132,132,-6,1026.41,45.6,0
"2020-05-14 08:23:21+00",4.5,4.5,,49.7,142,128,-6,1026.51,45.7,0
"2020-05-14 08:28:21+00",4.8,4.8,,49.8,141,143,-7,1026.48,45.7,0
"2020-05-14 08:33:21+00",4.8,4.8,,50.1,133,142,-6,1026.46,45.7,0
"2020-05-14 08:38:21+00",4.4,4.4,,50.5,123,129,-7,1026.51,45.8,0
"2020-05-14 08:43:21+00",3.5,3.5,,50.6,70,116,-2,1026.54,45.9,0
"2020-05-14 08:48:21+00",3.3,4.3,,50.8,58,117,-3,1026.49,46.3,0
"2020-05-14 08:53:21+00",2.4,2.4,,50.9,45,75,-1,1026.55,46.4,0
"2020-05-14 08:58:21+00",2.3,2.3,,51.1,43,71,-3,1026.56,46.6,0
"2020-05-14 09:03:21+00",2.6,2.6,,51.1,80,65,-3,1026.64,46.9,0
"2020-05-14 09:08:21+00",3.2,3.2,,50.9,115,72,-6,1026.66,46.9,0
"2020-05-14 09:13:21+00",3.8,3.8,,50.6,139,73,-6,1026.53,46.8,0
"2020-05-14 09:18:21+00",3.5,3.5,,50.5,138,51,-4,1026.56,46.6,0
"2020-05-14 09:23:21+00",2.9,2.9,,50.5,118,3,-3,1026.54,46.6,0
"2020-05-14 09:28:21+00",2.5,2.5,,50.7,95,-21,-3,1026.65,46.7,0
"2020-05-14 09:33:21+00",2.3,2.3,,50.9,89,9,0,1026.61,46.9,0
"2020-05-14 09:38:21+00",2.3,2.3,,51,90,-24,-1,1026.62,47.1,0
"2020-05-14 09:43:21+00",2.3,3.3,,51.1,69,-61,-2,1026.72,47.1,0
"2020-05-14 09:48:21+00",2.5,2.5,,50.9,23,-90,-5,1026.77,47,0
"2020-05-14 09:53:21+00",2.2,2.2,,50.9,41,-70,3,1026.77,47.1,0
"2020-05-14 09:58:21+00",2.8,3.8,,50.8,23,-102,9,1026.84,47.1,0
"2020-05-14 10:03:21+00",2.3,2.3,,50.9,39,-76,3,1026.75,47.3,0
"2020-05-14 10:08:21+00",1.8,1.8,,51.1,34,-53,-6,1026.86,47.5,0
"2020-05-14 10:13:21+00",2.2,2.2,,51.4,60,-58,3,1026.76,48.2,0
"2020-05-14 10:18:21+00",3.0,3.0,,51.4,99,-63,-6,1026.72,48.2,0
"2020-05-14 10:23:21+00",2.1,2.1,,51.7,80,-5,4,1026.79,48.8,0
"2020-05-14 10:28:21+00",2.2,2.2,,51.5,85,9,-2,1026.91,49.4,0
"2020-05-14 10:33:21+00",2.4,2.4,,51.7,92,9,-4,1026.82,50.1,0
"2020-05-14 10:38:21+00",2.5,2.5,,51.4,100,8,11,1026.82,50.6,0
"2020-05-14 10:43:21+00",4.6,5.6,,51.3,192,53,12,1026.79,51,0
"2020-05-14 10:48:21+00",4.3,4.3,,51.2,162,83,-2,1026.78,51.2,0
"2020-05-14 10:53:21+00",4.8,4.8,,51.3,202,45,12,1026.78,51.7,0
"2020-05-14 10:58:21+00",3.2,4.2,,51.3,129,21,2,1026.76,52.3,0
"2020-05-14 11:03:21+00",3.5,3.5,,51.5,147,-7,4,1026.79,52.7,0
"2020-05-14 11:08:21+00",3.5,4.5,,51.9,142,-46,1,1026.73,53.3,0
"2020-05-14 11:13:21+00",4.4,4.4,,52.2,181,-52,1,1026.82,53.4,0
"2020-05-14 11:18:21+00",4.5,5.5,,52.6,184,-65,6,1026.84,53.7,0
"2020-05-14 11:23:21+00",4.5,5.5,,53,187,-41,8,1026.7,54.1,0
"2020-05-14 11:28:21+00",4.5,5.5,,53.2,169,-94,-7,1026.69,54.6,0
"2020-05-14 11:33:21+00",4.5,4.5,,53.4,120,-144,-8,1026.75,54.5,0
"2020-05-14 11:38:21+00",4.5,5.5,,53.8,140,-135,-1,1026.67,55,0
"2020-05-14 11:43:21+00",4.9,5.9,,54.1,177,-107,-3,1026.69,55.5,0
"2020-05-14 11:48:21+00",4.9,5.9,,54.4,183,-101,-3,1026.66,56.2,0
"2020-05-14 11:53:21+00",5.3,5.3,,54.6,220,-68,9,1026.65,56.7,0
"2020-05-14 11:58:21+00",3.7,4.7,,55,138,-62,31,1026.64,57.2,0
"2020-05-14 12:03:21+00",3.7,4.7,,55,135,-57,18,1026.56,57.6,0
"2020-05-14 12:08:21+00",4.4,5.4,,55.2,164,-84,15,1026.61,57.9,0
"2020-05-14 12:13:21+00",3.6,4.6,,55.6,90,-118,-4,1026.63,57.7,0
"2020-05-14 12:18:21+00",4.2,5.2,,55.8,84,-144,5,1026.66,57.5,0
"2020-05-14 12:23:21+00",4.4,5.4,,56.2,51,-159,20,1026.66,57.9,0
"2020-05-14 12:28:21+00",3.8,4.8,,56.3,40,-143,-3,1026.63,57.6,0
"2020-05-14 12:33:21+00",4.2,5.2,,56.3,61,-163,1,1026.57,57.5,0
"2020-05-14 12:38:21+00",3.8,4.8,,56.4,105,-121,-9,1026.66,57.8,0
"2020-05-14 12:43:21+00",4.3,5.3,,56.9,123,-129,1,1026.67,58.2,0
"2020-05-14 12:48:21+00",5.2,6.2,,56.9,149,-155,-6,1026.66,58.8,0
"2020-05-14 12:53:21+00",4.5,5.5,,57.2,75,-163,-3,1026.65,58.9,0
"2020-05-14 12:58:21+00",2.6,3.6,,57.6,23,-84,-17,1026.73,59.1,0
"2020-05-14 13:03:21+00",5.1,6.1,,57.9,79,-202,-13,1026.78,59.4,0
"2020-05-14 13:08:21+00",4.7,5.7,,57.4,110,-153,14,1026.75,59.5,0
"2020-05-14 13:13:21+00",5.4,7.4,,57.6,129,-193,13,1026.73,59.6,0
"2020-05-14 13:18:21+00",6.7,7.7,,57.2,168,-224,-15,1026.7,59.7,0
"2020-05-14 13:23:21+00",6.7,8.7,,57.2,127,-246,3,1026.71,59.6,0
"2020-05-14 13:28:21+00",8.0,9.0,,56.9,114,-319,-27,1026.63,59.1,0
"2020-05-14 13:33:21+00",8.3,10.3,,57.1,164,-322,-4,1026.72,59.2,0
"2020-05-14 13:38:21+00",8.3,9.3,,56.9,142,-319,-24,1026.73,59,0
"2020-05-14 13:43:21+00",9.4,10.4,,56.8,153,-365,-11,1026.66,58.6,0
"2020-05-14 13:48:21+00",7.9,8.9,,56.7,146,-303,-13,1026.65,58.7,0
"2020-05-14 13:53:21+00",7.7,9.7,,57.2,118,-299,1,1026.63,59.2,0
"2020-05-14 13:58:21+00",8.2,9.2,,57,219,-271,2,1026.49,59.4,0
"2020-05-14 14:03:21+00",7.7,8.7,,57.4,140,-279,26,1026.53,59.7,0
"2020-05-14 14:08:21+00",8.1,10.1,,57.2,169,-307,17,1026.4,59.7,0.3
"2020-05-14 14:13:21+00",8.4,10.4,,57.3,206,-301,-21,1026.31,60,1.4
"2020-05-14 14:18:21+00",8.3,10.3,,57.1,160,-315,-28,1026.2,60,2.6
"2020-05-14 14:23:21+00",8.0,10.0,,57.5,251,-238,44,1026.2,60.3,2.3
"2020-05-14 14:28:21+00",9.5,11.5,,57,279,-298,-21,1026.24,59.6,3.1
"2020-05-14 14:33:21+00",8.7,10.7,,57,250,-289,38,1026.1,59.7,3.4
"2020-05-14 14:38:21+00",10.5,13.5,,56.9,409,-231,7,1025.92,60.3,3.9
"2020-05-14 14:43:21+00",9.8,12.8,,57.2,277,-303,-25,1025.96,60.6,4.5
"2020-05-14 14:48:21+00",10.7,11.7,,57,365,-312,11,1026.04,60.2,4.6
"2020-05-14 14:53:21+00",11.0,13.0,,56.9,294,-380,2,1026.06,59.8,4.2
"2020-05-14 14:58:21+00",11.2,13.2,,57,278,-379,12,1026.03,59.7,6.8
"2020-05-14 15:03:21+00",11.3,13.3,,56.9,250,-434,4,1025.95,59.6,11.5
"2020-05-14 15:08:21+00",12.9,14.9,,56.6,232,-518,-33,1025.95,59.3,15.6
"2020-05-14 15:13:21+00",10.7,13.7,,57.1,178,-407,43,1025.9,59.7,21.1
"2020-05-14 15:18:21+00",12.2,14.2,,56.7,162,-511,-19,1025.84,59.1,31.2
"2020-05-14 15:23:21+00",13.1,15.1,,56.5,213,-526,-14,1025.77,58.7,33.4
"2020-05-14 15:28:21+00",14.2,16.2,,56.1,171,-586,-26,1025.79,58.6,36.5
"2020-05-14 15:33:21+00",12.5,15.5,,56.2,192,-470,26,1025.81,58.5,40.2
"2020-05-14 15:38:21+00",12.5,15.5,,56.7,105,-535,1,1025.78,59,42.9
"2020-05-14 15:43:21+00",15.3,17.3,,56.2,181,-629,-7,1025.74,58.5,48.3
"2020-05-14 15:48:21+00",14.1,17.1,,56.6,201,-572,-2,1025.65,58.9,49.9
"2020-05-14 15:53:21+00",15.4,17.4,,56.2,192,-638,-34,1025.6,58.4,54.9
"2020-05-14 15:58:21+00",12.7,15.7,,56.6,160,-515,-12,1025.46,58.6,52
"2020-05-14 16:03:21+00",14.6,16.6,,56.7,270,-567,-19,1025.26,59.1,60.2
"2020-05-14 16:08:21+00",11.6,14.6,,56.5,105,-473,-8,1025.3,58.9,62.9
"2020-05-14 16:13:21+00",13.0,16.0,,56.1,133,-560,-10,1025.09,58.3,48.4
"2020-05-14 16:18:21+00",13.7,17.7,,56.3,102,-582,-9,1024.99,58.4,67.8
"2020-05-14 16:23:21+00",14.8,16.8,,56.7,127,-640,-38,1024.96,58.8,66.3
"2020-05-14 16:28:21+00",12.2,16.2,,57,79,-517,-2,1024.98,59,70.6
"2020-05-14 16:33:21+00",11.2,14.2,,57.4,67,-475,6,1024.79,59.2,66.6
"2020-05-14 16:38:21+00",13.6,15.6,,57.8,137,-571,1,1024.71,59.8,64.3
"2020-05-14 16:43:21+00",12.2,16.2,,57.7,108,-528,3,1024.57,60,57.2
"2020-05-14 16:48:21+00",11.9,14.9,,58.2,127,-488,4,1024.49,60.3,67.1
"2020-05-14 16:53:21+00",14.4,16.4,,58,145,-595,-26,1024.33,60.3,58.5
"2020-05-14 16:58:21+00",12.2,15.2,,57.9,124,-500,14,1024.47,60.1,56.1
"2020-05-14 17:03:21+00",12.3,16.3,,58.3,84,-515,-13,1024.33,60.4,57.1
"2020-05-14 17:08:21+00",13.5,16.5,,58.4,98,-577,-18,1024.24,60.3,51.6
"2020-05-14 17:13:21+00",12.7,16.7,,58.2,83,-527,15,1024.17,60.2,51.4
"2020-05-14 17:18:21+00",14.0,18.0,,59,143,-573,-6,1023.97,60.8,51
"2020-05-14 17:23:21+00",12.5,16.5,,59.3,97,-517,9,1023.95,61.3,47.4
"2020-05-14 17:28:21+00",13.9,17.9,,58.7,138,-578,-21,1023.78,61,40.9
"2020-05-14 17:33:21+00",11.7,15.7,,59.8,48,-504,19,1023.72,61.6,36.8
"2020-05-14 17:38:21+00",15.1,18.1,,60.3,101,-663,-33,1023.56,62.2,28.1
"2020-05-14 17:43:21+00",13.2,15.2,,60,111,-556,-26,1023.52,62.2,24.7
"2020-05-14 17:48:21+00",12.4,16.4,,60.4,71,-541,-27,1023.49,62.4,8.4
"2020-05-14 17:53:21+00",12.9,15.9,,61.1,60,-557,-25,1023.4,62.8,11.5
"2020-05-14 17:58:21+00",12.7,14.7,,61.2,109,-541,-15,1023.44,63,9.4
"2020-05-14 18:03:21+00",11.8,15.8,,60.9,115,-513,-21,1023.32,62.8,5.4
"2020-05-14 18:08:21+00",14.2,16.2,,60.1,155,-592,-28,1023.18,62.7,5.4
"2020-05-14 18:13:21+00",13.0,17.0,,59.5,166,-538,17,1023.28,62.1,5
"2020-05-14 18:18:21+00",13.6,16.6,,59,148,-558,-8,1023.18,61.3,4.3
"2020-05-14 18:23:21+00",12.0,15.0,,59.2,129,-507,-7,1023.17,61.6,4.1
"2020-05-14 18:28:21+00",13.7,16.7,,58.4,108,-575,-9,1022.97,60.9,3.1
"2020-05-14 18:33:21+00",11.5,13.5,,59.1,118,-487,23,1022.82,61.2,2.9
"2020-05-14 18:38:21+00",13.6,15.6,,58.6,161,-567,-22,1022.76,61,2.6
"2020-05-14 18:43:21+00",12.2,16.2,,58.2,104,-521,-4,1022.63,60.7,0.7
"2020-05-14 18:48:21+00",13.7,16.7,,58.1,136,-592,-15,1022.59,60.3,1.2
"2020-05-14 18:53:21+00",13.7,16.7,,58.3,169,-566,-10,1022.36,60.4,0
"2020-05-14 18:58:21+00",15.4,17.4,,58.1,215,-623,-11,1022.28,60.5,0
"2020-05-14 19:03:21+00",13.8,17.8,,58.2,147,-596,-34,1022.24,60.3,0
"2020-05-14 19:08:21+00",14.3,17.3,,58.3,84,-615,-23,1022.12,60.2,0
"2020-05-14 19:13:21+00",12.4,15.4,,58.4,98,-540,-9,1022.1,60.1,0
"2020-05-14 19:18:21+00",10.9,14.9,,58.5,72,-449,18,1022.04,60.2,0
"2020-05-14 19:23:21+00",12.1,14.1,,58.6,71,-521,11,1021.95,60.4,0
"2020-05-14 19:28:21+00",14.8,16.8,,58.8,88,-635,-25,1021.93,60.5,0
"2020-05-14 19:33:21+00",15.1,18.1,,59.2,125,-641,-18,1021.76,60.7,0
"2020-05-14 19:38:21+00",13.0,16.0,,60,80,-547,-13,1021.67,61.5,0
"2020-05-14 19:43:21+00",10.3,16.3,,60.6,25,-408,12,1021.55,62,0
"2020-05-14 19:48:21+00",10.9,16.9,,61.6,-33,-446,8,1021.42,62.9,0
"2020-05-14 19:53:21+00",19.1,25.1,,62.3,-176,-816,9,1021.24,63.7,0
"2020-05-14 19:58:21+00",19.7,25.7,,62.3,-174,-838,-18,1021.19,63.9,0
"2020-05-14 20:03:21+00",20.4,25.4,,61.8,-194,-864,-24,1021.28,63.6,0
"2020-05-14 20:08:21+00",17.7,22.7,,61.7,-221,-768,9,1021.25,63.5,0
"2020-05-14 20:13:21+00",15.7,20.7,,61.5,-119,-645,22,1021.11,63.1,0
"2020-05-14 20:18:21+00",15.7,19.7,,60.9,-108,-667,14,1021.04,62.3,0
"2020-05-14 20:23:21+00",14.3,18.3,,61.7,-109,-602,-6,1021.04,62.9,0
"2020-05-14 20:28:21+00",18.7,22.7,,61.2,-265,-781,2,1021.09,62.6,0
"2020-05-14 20:33:21+00",18.2,20.2,,60.6,-236,-755,-1,1021.09,61.9,0
"2020-05-14 20:38:21+00",17.2,21.2,,60.4,-219,-722,-2,1021.16,61.6,0
"2020-05-14 20:43:21+00",16.2,21.2,,60.2,-175,-662,15,1021.16,61.3,0
"2020-05-14 20:48:21+00",14.1,18.1,,60.4,-101,-599,10,1021.08,61.4,0
"2020-05-14 20:53:21+00",12.5,19.5,,60,-82,-521,11,1021.03,61.2,0
"2020-05-14 20:58:21+00",17.2,21.2,,60.3,-141,-738,-7,1021.1,61.5,0
"2020-05-14 21:03:21+00",17.3,23.3,,61.2,-153,-724,3,1020.83,62.3,0
"2020-05-14 21:08:21+00",16.6,23.6,,61.5,-166,-712,-1,1020.69,62.7,0
"2020-05-14 21:13:21+00",13.5,19.5,,61,-64,-542,3,1020.59,62.3,0
"2020-05-14 21:18:21+00",15.2,21.2,,60.1,-101,-635,-9,1020.68,61.6,0
"2020-05-14 21:23:21+00",14.5,19.5,,59.8,-124,-614,-1,1020.66,61.2,0
"2020-05-14 21:28:21+00",11.8,15.8,,59.7,-78,-509,1,1020.6,61.1,0
"2020-05-14 21:33:21+00",11.9,17.9,,59.5,12,-480,23,1020.46,60.7,0
"2020-05-14 21:38:21+00",13.8,19.8,,59.3,-29,-589,-17,1020.51,60.3,0
"2020-05-14 21:43:21+00",10.3,13.3,,59.3,-47,-445,8,1020.37,60.3,0
"2020-05-14 21:48:21+00",12.3,16.3,,59.1,-77,-523,-8,1020.29,60.1,0
"2020-05-14 21:53:21+00",14.6,18.6,,58.6,-121,-622,-17,1020.42,59.5,0
"2020-05-14 21:58:21+00",17.7,20.7,,58.2,-175,-756,-13,1020.33,59,0
"2020-05-14 22:03:21+00",14.2,18.2,,58.1,-167,-586,8,1020.34,58.7,0
"2020-05-14 22:08:21+00",17.2,20.2,,58.3,-267,-700,2,1020.3,58.8,0
"2020-05-14 22:13:21+00",17.9,21.9,,58.5,-255,-755,-15,1020.19,59.2,0
"2020-05-14 22:18:21+00",18.3,23.3,,58.3,-241,-756,-13,1020.23,59.2,0
"2020-05-14 22:23:21+00",18.9,22.9,,58.3,-271,-771,5,1020.18,59.2,0
"2020-05-14 22:28:21+00",15.6,18.6,,58.5,-306,-653,11,1020.24,59.3,0
"2020-05-14 22:33:21+00",15.5,19.5,,58.6,-213,-626,-9,1020.05,59.5,0
"2020-05-14 22:38:21+00",15.6,18.6,,58.8,-227,-647,2,1020.01,59.6,0
"2020-05-14 22:43:21+00",16.5,19.5,,58.5,-185,-687,-22,1019.9,59.1,0
"2020-05-14 22:48:21+00",14.0,19.0,,58.8,-186,-575,12,1019.83,59.4,0
"2020-05-14 22:53:21+00",16.5,19.5,,58.8,-229,-676,-6,1019.81,59.3,0
"2020-05-14 22:58:21+00",17.9,18.9,,58.8,-370,-723,-12,1019.99,59.3,0
"2020-05-14 23:03:21+00",15.5,18.5,,58.9,-256,-631,12,1019.94,59.4,0
"2020-05-14 23:08:21+00",14.9,18.9,,58.9,-203,-623,-13,1019.92,59.4,0
"2020-05-14 23:13:21+00",13.5,16.5,,59,-202,-555,13,1019.85,59.4,0
"2020-05-14 23:18:21+00",13.2,17.2,,59,-165,-539,2,1019.75,59.3,0
"2020-05-14 23:23:21+00",16.2,17.2,,59,-252,-653,-10,1019.82,59.3,0
"2020-05-14 23:28:21+00",13.0,16.0,,59.2,-141,-544,-2,1019.69,59.4,0
"2020-05-14 23:33:21+00",12.8,15.8,,59.2,-160,-525,11,1019.87,59.4,0
"2020-05-14 23:38:21+00",14.4,16.4,,59.1,-232,-594,-13,1019.87,59.2,0
"2020-05-14 23:43:21+00",13.1,16.1,,59.1,-217,-552,4,1019.99,59.1,0
"2020-05-14 23:48:21+00",13.0,15.0,,59.1,-209,-553,12,1020.03,59,0
"2020-05-14 23:53:21+00",12.5,13.5,,59.1,-238,-506,4,1020.05,59,0
"2020-05-14 23:58:21+00",16.6,19.6,,59.5,-455,-619,6,1020.08,59.1,0
